STARLINK-31810, 59799

Orbit data source: Space-Track

STARLINK-31810, 59799 is a payload satellite owned by SpaceX/Seattle (US) in LEO that was launched on Sat, 18 May 2024 UTC via an FALCON 9 launch vehicle from the Air Force Eastern Test Range (AFETR). Payload-class satellites include a variety of spacecraft equipped with specific instruments for various scientific and technological missions. These include communications satellites like Starlink; space stations such as the ISS; scientific satellites like the Hubble; Earth observation satellites from companies like Planet Labs, Umbra, and HawkEye 360; GPS; miniature CubeSats for education and research; and military/defense satellites.

Loading next visibility...
Identifier
59799, 2024-093T
Orbit
LEO
Country
Flag of USUS
Related business
Manufacturer
SpaceX/Seattle
Mission
Operational spacecraft
Bus & Motor
STARLINK V2M, Unknown motor
Mass
730 kg wet, ~700 kg dry
Launch date (UTC)
2024-05-18 (2 years ago)
Launch vehicle
FALCON 9
Launch site
Air Force Eastern Test Range (AFETR)
Object type
Payload
Rocket body
Debris
Shape & HBR
Unknown shape, 17.7 m
Radar Cross Section
Large (>1 m²)

Expand to show TLE details & history
Last TLE update: 1 day ago

TLE from 1 day ago
0 STARLINK-31810
1 59799U 24093T   25340.38610194 -.00001379  00000-0 -40562-4 0  9996
2 59799  43.0024  16.0143 0001535 279.5758  80.4921 15.27601363 88426
Epoch: 2025-12-06T09:15Z
TLE epoch observation values (Epoch: 2025-12-06T09:15:59.207Z)
Latitude
0.00003°
Longitude
161.60305°
Altitude
482.587 km
Speed
7.626 km/s
True Right ascension
01h 04m 03s
True Declination
0° 00' 00"
Sunlit
Object was in full shadow at epoch
Visualization orbit readout
Latitude
Unknown
Longitude
Unknown
Altitude
Unknown
Speed
Unknown
Apparent Right ascension
Unknown
Apparent Declination
Unknown
Sunlit
N/A
Visualization observer readout
Local Sidereal Time
11:43:23
Azimuth
Unknown
Elevation
Unknown
Doppler factor
Unknown
Orbital elements
Apogee altitude
485.983 km
Perigee altitude
483.876 km
Semi-major axis
6,863.067 km
Eccentricity
0.00015
Inclination
43.0024°
RAAN
16.0143°
Arg. of periapsis
279.5758°
True anomaly
80.50945°
Mean anomaly
80.4921°
Eccentric anomaly
80.50077°
Mean motion
3.81738 °/min
Orbital period
94.31 mins
BSTAR
-0.000040562
Loading maneuver chart data...
Computing Atmospheric mass density...
Loading historical data...
Loading historical data...
Loading historical data...
Loading historical data...
Loading historical data...
Loading historical data...
Loading historical data...

Documentation

Showing up to 5 results
|